Tracking 28790 objects as of 18-Apr-2024
HD Live streaming from Space Station
objects crossing your sky now

STARLINK-2715

Track STARLINK-2715 now!
10-day predictions
STARLINK-2715 is classified as:


NORAD ID: 48697
Int'l Code: 2021-044BM
Perigee: 468.4 km
Apogee: 479.2 km
Inclination: 53.0 °
Period: 93.9 minutes
Semi major axis: 6844 km
RCS: Unknown
Launch date: May 26, 2021
Source: United States (US)
Launch site: AIR FORCE EASTERN TEST RANGE (AFETR)
Your satellite tracking list
Your tracking list is empty




NASA's NSSDC Master Catalog

Two Line Element Set (TLE):
1 48697U 21044BM  24108.83379522  .00205612  00000-0  61841-2 0  9997
2 48697  53.0447 297.8550 0007890 221.8557 138.1841 15.33057940160212
Source of the keplerian elements: AFSPC